Regional Weather Roundup
Issued by NWS

Home | Current Version | Previous Version | Graphics & Text | Print | Product List | Glossary On
Versions: 1 2 3 4 5 6 7 8 9 10 11 12 13 14 15 16 17 18 19 20 21 22 23 24 25 26 27 28 29 30 31 32 33 34 35 36 37 38 39 40 41 42 43 44 45 46 47 48 49 50
000
ASUS43 KLMK 271702
RWRKY
KENTUCKY REGIONAL WEATHER ROUNDUP
NATIONAL WEATHER SERVICE LOUISVILLE KY
100 PM EDT TUE SEP 27 2016

NOTE "FAIR" INDICATES FEW OR NO CLOUDS BELOW 12,000 FEET
WITH NO SIGNIFICANT WEATHER AND/OR OBSTRUCTIONS TO VISIBILITY.

KYZ001>023-026-027-061>063-070>075-271800-
WESTERN AND SOUTH CENTRAL KENTUCKY

CITY           SKY/WX    TMP DP  RH WIND       PRES   REMARKS
PADUCAH        FAIR      76  41  28 VRB3      30.02F
HENDERSON      FAIR      75  43  31 W13       29.99F
OWENSBORO      NOT AVBL
HOPKINSVILLE   SUNNY     72  43  35 W6        30.02F
BOWLING GREEN  FAIR      71  38  29 VRB3      30.02F
GLASGOW        FAIR      71  49  46 NW5       30.02F
$$

KYZ024-025-028>034-038-045-046-053-271800-
NORTH CENTRAL KENTUCKY

CITY           SKY/WX    TMP DP  RH WIND       PRES   REMARKS
LOUISVILLE/SDF FAIR      74  41  30 W12G17    29.98F
LOUISVILLE/LOU FAIR      72  42  34 W8        29.99F
FORT KNOX      FAIR      73  42  32 W10       29.98F
$$

KYZ035>037-039>044-047>052-055>060-089>105-271800-
NORTHEAST KENTUCKY

CITY           SKY/WX    TMP DP  RH WIND       PRES   REMARKS
LEXINGTON      FAIR      72  36  26 SW10      30.00F
COVINGTON      FAIR      71  43  36 SW13      29.96F
FRANKFORT      FAIR      72  38  29 SW6       29.98F
$$

KYZ054-064>069-076>088-106>120-271800-
SOUTHEAST KENTUCKY

CITY           SKY/WX    TMP DP  RH WIND       PRES   REMARKS
JACKSON        FAIR      71  44  37 CALM      30.02F
LONDON         FAIR      70  39  32 CALM      30.02F
SOMERSET       FAIR      68  43  40 NW3       30.03F
MIDDLESBORO    FAIR      73  48  42 CALM      30.00F
MONTICELLO     FAIR      69  41  36 N15G21    30.04F
$$





USA.gov is the U.S. government's official web portal to all federal, state and local government web resources and services.